Flag for Brazil Weather past 2 weeks in Brasilia, Distrito Federal, Brazil

Now
79 °F

Sunny.


Feels Like: 79 °F
Forecast: 55 / 79 °F
Wind: 6 mph from East

Location: Brasilia Aeroporto

Current Time: Aug 2, 2015 at 1:41:02 PM

Latest Report: Aug 2, 2015 at 1:00 PM


Visibility: 10 mi

Pressure: 30.15 "Hg (26.62 "Hg at 1091m altitude)

Humidity: 34%

Dew point: 48 °F

Location of BrasiliaLocation

Historic Weather in Brasilia — Graph

°F

Brasilia temperature yesterday

Maximum temperature yesterday: 79 °F (at 2:00 PM)
Minimum temperature yesterday: 52 °F (at 6:00 AM)
Average temperature yesterday: 67 °F

Past Weeks' High & Low Weather Summary

 TemperatureHumidityPressure
High82 °F (Jul 21, 2:00 PM)94% (Jul 26, 6:00 AM)30.30 "Hg (Jul 26, 6:00 AM)
Low50 °F (Aug 2, 7:00 AM)28% (Jul 21, 5:00 PM)30.07 "Hg (Jul 27, 3:00 PM)
Average68 °F54%30.18 "Hg
* Reported Jul 18 12:00 Noon — Aug 2 12:00 Noon, Brasilia, Weather by CustomWeather, © 2015

Note: Actual official high and low records may vary slightly from our data, if they occured in-between our weather recording intervals... More about our weather records

Advertising

Brasilia weather history for previous 24 hours

 ConditionsComfort  
Time TempWeatherWind HumidityBarometerVisibility
12:00 PM
Sun, Aug 2
75 °FSunny.9 mph39%30.18 "Hg10 mi
11:00 AM73 °FSunny.14 mph44%30.18 "Hg10 mi
10:00 AM70 °FSunny.13 mph50%30.21 "Hg10 mi
9:00 AM66 °FSunny.14 mph52%30.18 "Hg10 mi
8:00 AM63 °FSunny.7 mph56%30.18 "Hg10 mi
7:00 AM50 °FSunny.2 mph82%30.15 "Hg10 mi
6:00 AM54 °FClear.No wind72%30.12 "Hg10 mi
5:00 AM54 °FClear.No wind72%30.12 "Hg10 mi
4:00 AM52 °FClear.No wind82%30.12 "Hg10 mi
3:00 AM55 °FClear.No wind72%30.12 "Hg10 mi
2:00 AM57 °FClear.No wind72%30.15 "Hg10 mi
1:00 AM59 °FClear.No wind68%30.18 "Hg10 mi
12:00 AM64 °FClear.5 mph56%30.18 "Hg10 mi
11:00 PM
Sat, Aug 1
66 °FClear.No wind52%30.18 "Hg10 mi
10:00 PM64 °FClear.2 mph56%30.18 "Hg10 mi
9:00 PM68 °FClear.7 mph49%30.18 "Hg10 mi
8:00 PM72 °FClear.12 mph44%30.15 "Hg10 mi
7:00 PM73 °FClear.10 mph41%30.15 "Hg10 mi
6:00 PM75 °FClear.9 mph36%30.12 "Hg10 mi
5:00 PM79 °FSunny.12 mph30%30.12 "Hg10 mi
4:00 PM79 °FSunny.12 mph30%30.12 "Hg10 mi
3:00 PM79 °FSunny.10 mph30%30.12 "Hg10 mi
2:00 PM79 °FSunny.12 mph30%30.15 "Hg10 mi
1:00 PM77 °FSunny.12 mph36%30.21 "Hg10 mi
Weather by CustomWeather, © 2015

See weather overviewHow to use our weather pages